www.pogodaiklimat.ru

Погода и климат >> Архив погоды >> Боливия >> San Joaquin


ПОГОДА в San Joaquin

  • Прогноз погоды в San Joaquin
  • Монитор погоды в San Joaquin
  • Климат города

АРХИВ ПОГОДЫ в San Joaquin

Время (UTC), дата Ветер
(напр.,м/с)
 
Видим.   Явления Облачность Т
(С)
Тd
(С)
f
(%)
Тe
(С)
Тes
(С)
Комфортность P
(гПа)
Po
(гПа)
Тmin
(С)
Tmax
(С)
R
(мм)
R24
(мм)
S
(см)
12 17.01 штиль 0 15 км 9/1 210 м
[Sc Ac trans Ci]
+23.6 +23.0 96 +31 +35 очень
душно
1013.0 996.7 +21.3 4
15 17.01 штиль 0 15 км 8/5 450 м
[Sc Ac trans]
+28.2 +23.9 78 +39 +47 очень
душно
1014.1 997.9
18 17.01 СЗ 2 8000 м осадки на расстоянии 8/5 500 м
[Cb cap Ac trans]
+29.3 +24.0 73 +41 +46 опасность
перегрева
1012.0 996.1
21 17.01 СЗ 3 6000 м осадки на расстоянии 8/8 500 м
[Cb cap]
+28.0 +24.0 79 +39 +39 очень
душно
1008.6 992.7 +31.8
12 18.01 штиль 0 15 км 9/1 360 м
[Sc Ac trans]
+24.5 +23.4 94 +33 +36 очень
душно
1013.1 997.0 +21.6
15 18.01 СЗ 4 15 км 6/5 450 м
[Sc Ac trans]
+28.6 +23.9 76 +40 +45 очень
душно
1014.1 998.0
18 18.01 СЗ 4 15 км 6/6 500 м
[Cu med, cong]
+31.3 +24.0 65 +43 +48 опасность
перегрева
1012.0 996.0
21 18.01 СЗ 3 15 км 5/5 500 м
[Cb cap]
+32.1 +23.8 62 +44 +45 опасность
перегрева
1008.5 992.5 +33.4
12 19.01 штиль 0 15 км 5/3 500 м
[Cu med, cong Ci]
+26.4 +24.7 90 +37 +42 очень
душно
1013.0 996.8 +23.6
15 19.01 СЗ 3 15 км 5/5 500 м
[Cu med, cong]
+30.8 +25.2 72 +45 +53 опасность
перегрева
1014.1 998.0
18 19.01 ЮЗ 5 6000 м гроза без осадков туман 10/8 450 м
[Sc As op]
+25.1 +23.0 88 +33 +34 очень
душно
1012.1 996.0
21 19.01 штиль 0 15 км 9/4 450 м
[Cb cap Cs]
+24.1 +23.4 96 +32 +35 очень
душно
1010.0 993.9 +32.7
12 20.01 штиль 0 15 км 9/1 210 м
[Sc Ac trans]
+24.2 +23.6 96 +33 +35 очень
душно
1013.1 996.9 +21.7 4
15 20.01 СЗ 3 15 км 6/6 500 м
[Cu med, cong]
+29.1 +24.3 75 +41 +47 опасность
перегрева
1014.4 998.2
18 20.01 СЗ 6 15 км 6/6 500 м
[Cu med, cong]
+31.1 +24.5 68 +44 +46 опасность
перегрева
1011.8 995.8
21 20.01 СЗ 5 15 км 5/5 500 м
[Cb cap]
+31.8 +24.9 67 +45 +46 опасность
перегрева
1007.7 991.7 +33.4
12 21.01 СЗ 2 15 км 3/0 2000 м
[Ac trans]
+24.5 +22.9 91 +32 +36 очень
душно
1011.3 995.2 +21.6
15 21.01 СЗ 3 15 км 5/1 500 м
[Cu hum Ac trans]
+30.3 +23.3 66 +41 +51 опасность
перегрева
1012.8 996.7
18 21.01 СЗ 3 15 км 8/8 500 м
[Cb cap]
+30.5 +24.4 70 +43 +46 опасность
перегрева
1010.5 994.5
21 21.01 В 3 8000 м осадки на расстоянии {ливн. осадки} 6/4 500 м
[Cb cap Ci]
+29.6 +25.7 80 +44 +46 опасность
перегрева
1007.2 991.2 +32.6
12 22.01 СЗ 2 15 км 6/0 2000 м
[Ac trans Ci]
+25.0 +23.6 92 +34 +37 очень
душно
1009.9 993.8 +21.7 8
15 22.01 СЗ 4 15 км 6/4 500 м
[Cu med, cong Ci]
+30.0 +24.0 70 +41 +49 опасность
перегрева
1010.8 994.8
18 22.01 СЗ 2 15 км 8/8 500 м
[Cb cap]
+30.0 +24.7 73 +43 +46 опасность
перегрева
1008.5 992.5
21 22.01 СЗ 2 8000 м осадки на расстоянии 9/4 500 м
[Cb cap Cs]
+31.5 +24.2 65 +43 +45 опасность
перегрева
1004.9 989.0 +33.6
12 23.01 С 2 15 км 9/1 210 м
[Sc Ac trans]
+24.5 +23.1 92 +33 +35 очень
душно
1010.2 994.1 +22.6
15 23.01 СЗ 4 15 км 9/1 450 м
[Sc Ac trans Ci]
+28.5 +23.1 73 +38 +45 очень
душно
1011.5 995.4
18 23.01 С 5 15 км 5/1 500 м
[Cu hum Ac trans]
+31.6 +23.7 63 +43 +49 опасность
перегрева
1009.9 994.0
21 23.01 С 4 15 км 5/3 500 м
[Cu hum Ci fib]
+32.1 +23.7 61 +43 +45 опасность
перегрева
1005.9 990.0 +33.8

 

Местоположение метеостанции San Joaquin (Боливия): широта -13.06 долгота -64.81 высота над уровнем моря 140 м.

В архиве по умолчанию представлена погода в San Joaquin за последнюю неделю. Архивные данные за месяц целиком и за предыдущие месяцы, начиная с января 2011 года, Вы можете получить, выбрав интересующий диапазон дат из раскрывающегося списка и нажав кнопку "Ввод!".

Внимание! Время в таблицах - всемирное. Для получения местного времени необходимо прибавить поправку, которая в San Joaquin равна -4 ч.

Смотрите также архив погоды в соседних городах и на ближайших метеорологических станциях:

Погода в San Ramon (Боливия) (29 км)
Погода в Magdalena (Боливия) (82 км)
Погода в Baures (Боливия) (102 км)
Погода в Santa Ana (Боливия) (103 км)
Погода в Trinidad (Боливия) (195 км)
Погода в San Ignacio De Moxo (Боливия) (223 км)
Погода в Santa Rosa (Боливия) (257 км)
Погода в Riberalta (Боливия) (269 км)
Погода в San Borja (Боливия) (298 км)
Погода в Reyes (Боливия) (311 км)

Пояснения к столбцам:

Ветер - указаны скорость ветра в м/с - средняя за 10 мин, порывы в срок и между сроками (в фигурных скобках) и направление, откуда дует ветер: С - северный, СВ - северо-восточный, В - восточный, ЮВ - юго-восточный, Ю - южный, ЮЗ - юго-западный, З - западный, СЗ - северо-западный.
Видимость - горизонтальная дальность видимости в метрах или километрах. При видимости от 1 до 10 км при отсутствии осадков обычно наблюдается дымка, при ухудшении видимости до 1 км и менее - туман. В сухую погоду видимость может ухудшаться дымом, пылью или мглою.
Явления - указаны атмосферные явления, наблюдавшиеся в срок или в последний час перед сроком; фигурными скобками обозначены явления, наблюдавшиеся между сроками (за 1-3 часа до срока); квадратными скобками обозначены град или гололедные отложения с указанием их диаметра в мм.
Облачность - указаны через наклонную черту общая и нижняя облачность в баллах и высота нижней границы облаков в метрах; квадратными скобками обозначены формы облаков: Ci - перистые, Cs - перисто-слоистые, Cc - перисто-кучевые, Ac - высококучевые, As - высокослоистые, Sc - слоисто-кучевые, Ns - слоисто-дождевые, Cu - кучевые, Cb - кучево-дождевые. Подробнее классификацию облаков см. в Атласе облаков (PDF).
T - Температура воздуха - температура, измеренная на высоте 2 м над землей.
Td - Температура точки росы - температура, при понижении до которой содержащийся в воздухе водяной пар достигнет насыщения.
f - Относительная влажность воздуха - влажноcть воздуха, измеренная на высоте 2 м над землей.
Te - Эффективная температура - температура, которую ощущает одетый по сезону человек в тени. Характеристика душности погоды. При расчете учитывается влияние влажности воздуха и скорости ветра на теплоощущения человека.
Tes - Эффективная температура на солнце - температура, которую ощущает человек, с поправкой на солнечный нагрев. Характеристика знойности погоды. Зависит от высоты солнца над горизонтом, облачности и скорости ветра. Ночью, в пасмурную погоду, а также при ветре 12 м/с и более поправка равна нулю.
P - Атмосферное давление - приведенное к уровню моря атмосферное давление.
Po - Атмосферное давление - измеренное на уровне метеостанции атмосферное давление.
Tmin - Минимальная температура - минимум температуры воздуха на высоте 2 м над землей.
Tmax - Максимальная температура - максимум температуры воздуха на высоте 2 м над землей.
R - Количество осадков - Количество выпавших осадков за период времени, мм. При наведении курсора мыши на число - период времени, за который выпало указанное количество осадков.
R24 - Количество осадков - Количество выпавших осадков за 24 часа, мм.
S - Снежный покров - Высота снежного покрова, см. При наведении курсора мыши на число - состояние снежного покрова и степень покрытия местности в баллах.